Location: Star Dogged Moon Observatory
(29.7756°N, 82.0783°W)
Time: 05:15:52
(UTC-04:00)

ARGOS - Visible Passes

Search period start: 26 March 2017 00:00
Search period end: 05 April 2017 00:00
Orbit: 819 x 836 km, 98.6° (Epoch: 24 March)

Date Brightness Start Highest point End Pass type
(mag) Time Alt. Az. Time Alt. Az. Time Alt. Az.
26 Mar 5.5 21:51:33 11° NNE 21:51:33 11° NNE 21:51:45 10° NNE visible
27 Mar 5.9 23:14:09 13° NNW 23:14:09 13° NNW 23:14:38 10° NNW visible
28 Mar 5.6 22:55:16 15° N 22:55:16 15° N 22:56:09 10° N visible
29 Mar 5.4 22:36:23 16° N 22:36:23 16° N 22:37:29 10° N visible
30 Mar 5.3 22:17:29 16° NNE 22:17:29 16° NNE 22:18:38 10° N visible
31 Mar 5.3 21:58:36 14° NNE 21:58:36 14° NNE 21:59:33 10° NNE visible
31 Mar 6.1 23:40:07 10° NW 23:40:07 10° NW 23:40:12 10° NW visible
01 Apr 5.4 21:39:43 11° NE 21:39:43 11° NE 21:40:03 10° NNE visible
01 Apr 5.8 23:21:13 14° NNW 23:21:13 14° NNW 23:22:01 10° NNW visible
02 Apr 5.5 23:02:20 18° NNW 23:02:20 18° NNW 23:03:37 10° NNW visible
03 Apr 5.2 22:43:27 20° N 22:43:27 20° N 22:45:02 10° N visible
04 Apr 5.0 22:24:34 20° NNE 22:24:34 20° NNE 22:26:16 10° N visible
